When you browse on this site, cookies collect data to enhance your experience and personalize the content and advertising you see.
Visit our Privacy Policy to learn more. By continuing to use the site, you agree to this use of cookies and data.
  • en Belgique
  • Liste des pays
  • À 7 jours
  • Température de l'eau
  • Carte satellitaire
  • Carte météo
  • Widgets météo
  • user-avatar
    Se connecter

    Météo par heure à Lesnoe

    Ce jour, 18 Juin, Mardi

    Heure Température Précipitation Vent Pression Humidité
    00:00 +16°C° 0 mm 2 m/s 746 mmHg 80%
    01:00 +16°C° 0 mm 2 m/s 745 mmHg 82%
    02:00 +15°C° 0 mm 2 m/s 745 mmHg 87%
    03:00 +16°C° 0 mm 2 m/s 745 mmHg 83%
    04:00 +17°C° 0 mm 3 m/s 746 mmHg 80%
    05:00 +17°C° 0 mm 3 m/s 746 mmHg 76%
    06:00 +19°C° 0 mm 3 m/s 746 mmHg 71%
    07:00 +20°C° 0 mm 3 m/s 746 mmHg 65%
    08:00 +21°C° 0 mm 3 m/s 746 mmHg 59%
    09:00 +23°C° 0 mm 4 m/s 746 mmHg 54%
    10:00 +25°C° 0 mm 4 m/s 746 mmHg 49%
    11:00 +26°C° 0 mm 5 m/s 746 mmHg 44%
    12:00 +26°C° 0.1 mm 5 m/s 746 mmHg 42%
    13:00 +27°C° 0.1 mm 5 m/s 746 mmHg 41%
    14:00 +27°C° 0.1 mm 5 m/s 746 mmHg 40%
    15:00 +26°C° 0 mm 4 m/s 746 mmHg 42%
    16:00 +26°C° 0 mm 4 m/s 746 mmHg 43%
    17:00 +25°C° 0 mm 3 m/s 746 mmHg 44%
    18:00 +22°C° 0 mm 3 m/s 746 mmHg 53%
    19:00 +20°C° 0 mm 3 m/s 746 mmHg 62%
    20:00 +19°C° 0 mm 2 m/s 746 mmHg 71%
    21:00 +17°C° 0 mm 2 m/s 747 mmHg 74%
    22:00 +16°C° 0 mm 2 m/s 747 mmHg 77%
    23:00 +15°C° 0 mm 2 m/s 747 mmHg 79%

    Demain, 19 Juin, Mercredi

    Heure Température Précipitation Vent Pression Humidité
    00:00 +15°C° 0 mm 2 m/s 747 mmHg 81%
    01:00 +14°C° 0 mm 2 m/s 748 mmHg 82%
    02:00 +14°C° 0 mm 2 m/s 748 mmHg 83%
    03:00 +15°C° 0 mm 2 m/s 748 mmHg 81%
    04:00 +15°C° 0 mm 2 m/s 748 mmHg 78%
    05:00 +16°C° 0 mm 2 m/s 748 mmHg 76%
    06:00 +18°C° 0 mm 2 m/s 748 mmHg 70%
    07:00 +20°C° 0 mm 2 m/s 749 mmHg 64%
    08:00 +21°C° 0 mm 2 m/s 749 mmHg 58%
    09:00 +24°C° 0 mm 3 m/s 749 mmHg 53%
    10:00 +26°C° 0 mm 3 m/s 749 mmHg 47%
    11:00 +27°C° 0 mm 3 m/s 749 mmHg 42%
    12:00 +27°C° 0 mm 3 m/s 749 mmHg 41%
    13:00 +28°C° 0 mm 3 m/s 749 mmHg 40%
    14:00 +28°C° 0 mm 3 m/s 749 mmHg 38%
    15:00 +28°C° 0 mm 3 m/s 749 mmHg 40%
    16:00 +27°C° 0 mm 3 m/s 748 mmHg 41%
    17:00 +27°C° 0 mm 2 m/s 748 mmHg 43%
    18:00 +25°C° 0 mm 2 m/s 748 mmHg 51%
    19:00 +23°C° 0 mm 2 m/s 748 mmHg 59%
    20:00 +20°C° 0 mm 2 m/s 748 mmHg 67%
    21:00 +18°C° 0 mm 2 m/s 749 mmHg 69%
    22:00 +17°C° 0 mm 2 m/s 749 mmHg 72%
    23:00 +16°C° 0 mm 2 m/s 749 mmHg 75%

    Après-demain, 20 Juin, Jeudi

    Heure Température Précipitation Vent Pression Humidité
    00:00 +15°C° 0 mm 2 m/s 749 mmHg 75%
    01:00 +15°C° 0 mm 1 m/s 749 mmHg 74%
    02:00 +15°C° 0 mm 1 m/s 749 mmHg 74%
    03:00 +15°C° 0 mm 1 m/s 749 mmHg 74%
    04:00 +16°C° 0 mm 1 m/s 749 mmHg 73%
    05:00 +16°C° 0 mm 1 m/s 750 mmHg 73%
    06:00 +18°C° 0 mm 2 m/s 750 mmHg 67%
    07:00 +21°C° 0 mm 2 m/s 750 mmHg 61%
    08:00 +24°C° 0 mm 2 m/s 750 mmHg 55%
    09:00 +25°C° 0 mm 2 m/s 750 mmHg 49%
    10:00 +26°C° 0 mm 2 m/s 750 mmHg 44%
    11:00 +28°C° 0 mm 2 m/s 750 mmHg 38%
    12:00 +28°C° 0 mm 2 m/s 749 mmHg 37%
    13:00 +29°C° 0 mm 2 m/s 749 mmHg 36%
    14:00 +29°C° 0 mm 2 m/s 749 mmHg 35%
    15:00 +29°C° 0 mm 2 m/s 748 mmHg 40%
    16:00 +28°C° 0 mm 2 m/s 748 mmHg 45%
    17:00 +28°C° 0 mm 1 m/s 748 mmHg 50%
    18:00 +26°C° 0 mm 1 m/s 748 mmHg 57%
    19:00 +24°C° 0 mm 1 m/s 748 mmHg 64%
    20:00 +22°C° 0 mm 1 m/s 748 mmHg 70%
    21:00 +21°C° 0 mm 1 m/s 748 mmHg 72%
    22:00 +21°C° 0 mm 1 m/s 748 mmHg 73%
    23:00 +19°C° 0 mm 2 m/s 748 mmHg 75%

    21 Juin, Vendredi

    Heure Température Précipitation Vent Pression Humidité
    00:00 +18°C° 0 mm 2 m/s 748 mmHg 77%
    01:00 +18°C° 0 mm 2 m/s 748 mmHg 79%
    02:00 +17°C° 0 mm 2 m/s 749 mmHg 82%
    03:00 +18°C° 0 mm 2 m/s 749 mmHg 80%
    04:00 +19°C° 0 mm 2 m/s 749 mmHg 79%
    05:00 +19°C° 0 mm 2 m/s 749 mmHg 77%
    06:00 +21°C° 0 mm 2 m/s 749 mmHg 71%
    07:00 +24°C° 0 mm 2 m/s 749 mmHg 64%
    08:00 +26°C° 0 mm 2 m/s 749 mmHg 57%
    09:00 +27°C° 0 mm 3 m/s 749 mmHg 53%
    10:00 +28°C° 0 mm 3 m/s 749 mmHg 48%
    11:00 +29°C° 0 mm 3 m/s 749 mmHg 44%
    12:00 +29°C° 0 mm 3 m/s 748 mmHg 44%
    13:00 +29°C° 0 mm 3 m/s 748 mmHg 43%
    14:00 +30°C° 0 mm 3 m/s 748 mmHg 43%
    15:00 +29°C° 0 mm 3 m/s 747 mmHg 45%
    16:00 +29°C° 0 mm 3 m/s 747 mmHg 48%
    17:00 +28°C° 0 mm 2 m/s 747 mmHg 50%
    18:00 +26°C° 0 mm 2 m/s 747 mmHg 59%
    19:00 +24°C° 0 mm 2 m/s 747 mmHg 68%
    20:00 +23°C° 0 mm 2 m/s 747 mmHg 78%
    21:00 +21°C° 0 mm 2 m/s 747 mmHg 83%
    22:00 +20°C° 0 mm 2 m/s 747 mmHg 87%
    23:00 +19°C° 0 mm 2 m/s 747 mmHg 92%

    22 Juin, Samedi

    Heure Température Précipitation Vent Pression Humidité
    00:00 +18°C° 0 mm 2 m/s 747 mmHg 94%
    01:00 +18°C° 0 mm 2 m/s 747 mmHg 96%
    02:00 +18°C° 0 mm 2 m/s 747 mmHg 98%
    03:00 +18°C° 0 mm 2 m/s 747 mmHg 96%
    04:00 +19°C° 0 mm 2 m/s 747 mmHg 93%
    05:00 +20°C° 0 mm 2 m/s 747 mmHg 91%
    06:00 +20°C° 0.1 mm 2 m/s 747 mmHg 90%
    07:00 +21°C° 0.1 mm 2 m/s 747 mmHg 88%
    08:00 +21°C° 0.1 mm 2 m/s 746 mmHg 87%
    09:00 +22°C° 0 mm 3 m/s 746 mmHg 85%
    10:00 +24°C° 0 mm 3 m/s 746 mmHg 83%
    11:00 +24°C° 0 mm 3 m/s 746 mmHg 81%
    12:00 +26°C° 0 mm 3 m/s 745 mmHg 73%
    13:00 +28°C° 0 mm 3 m/s 745 mmHg 64%
    14:00 +30°C° 0 mm 3 m/s 745 mmHg 56%
    15:00 +28°C° 1.1 mm 3 m/s 745 mmHg 67%
    16:00 +26°C° 1.1 mm 4 m/s 744 mmHg 78%
    17:00 +23°C° 1.1 mm 4 m/s 744 mmHg 88%
    18:00 +24°C° 0.2 mm 3 m/s 744 mmHg 91%
    19:00 +22°C° 0.2 mm 3 m/s 744 mmHg 93%
    20:00 +21°C° 0.2 mm 2 m/s 745 mmHg 96%
    21:00 +21°C° 0.1 mm 2 m/s 745 mmHg 96%
    22:00 +20°C° 0.1 mm 3 m/s 746 mmHg 96%
    23:00 +20°C° 0.1 mm 3 m/s 746 mmHg 96%

    23 Juin, Dimanche

    Heure Température Précipitation Vent Pression Humidité
    00:00 +18°C° 0 mm 3 m/s 746 mmHg 96%
    01:00 +16°C° 0 mm 3 m/s 747 mmHg 95%
    02:00 +15°C° 0 mm 2 m/s 748 mmHg 95%
    03:00 +15°C° 0 mm 2 m/s 748 mmHg 94%
    04:00 +15°C° 0 mm 2 m/s 749 mmHg 93%
    05:00 +15°C° 0 mm 2 m/s 749 mmHg 92%
    06:00 +17°C° 0 mm 2 m/s 749 mmHg 83%
    07:00 +18°C° 0 mm 2 m/s 750 mmHg 73%
    08:00 +20°C° 0 mm 2 m/s 750 mmHg 64%
    09:00 +21°C° 0 mm 2 m/s 750 mmHg 57%
    10:00 +24°C° 0 mm 2 m/s 750 mmHg 49%
    11:00 +25°C° 0 mm 2 m/s 750 mmHg 42%
    12:00 +25°C° 0 mm 2 m/s 750 mmHg 41%
    13:00 +25°C° 0 mm 2 m/s 750 mmHg 40%
    14:00 +25°C° 0 mm 2 m/s 750 mmHg 39%
    15:00 +25°C° 0 mm 2 m/s 750 mmHg 41%
    16:00 +24°C° 0 mm 2 m/s 750 mmHg 44%
    17:00 +24°C° 0 mm 2 m/s 750 mmHg 47%
    18:00 +21°C° 0 mm 2 m/s 750 mmHg 51%
    19:00 +20°C° 0 mm 2 m/s 751 mmHg 55%
    20:00 +19°C° 0 mm 1 m/s 751 mmHg 59%
    21:00 +19°C° 0 mm 1 m/s 751 mmHg 59%
    22:00 +18°C° 0 mm 1 m/s 751 mmHg 60%
    23:00 +15°C° 0 mm 0 m/s 751 mmHg 60%
    Voir plus